Rochester International Airport
KRST : now visible

Airfield :











YOU CAN JOIN US ON...

 
LOGIN :

Register | Disclaimer

   EN    FR    IT 

 









Legend :    VFR   Marginal VFR   IFR   Intensive IFR   Very Intensive IFR
Visi :
Ceiling :
>= 8 km
>= 3000ft
5 to 8 km
1000 to 3000 ft
1500m to 5 km
500 to 1000 ft
800 to 1500m
200 to 500 ft
< 800m
< 200 ft
Symbols :   Thunderstorms  Fog  Heavy snow  Heavy precipitations  Wind > 20 kt






- Airport Elevation : 1317 ft
- IATA code : RST


KRST - Rochester International

CURRENT METAR :
  • 241254Z 27006KT 9SM CLR M07/M08 A3033 RMK AO2 SLP289 T10671083

EXPIRED METARs :
  • 241154Z 28005KT 10SM CLR M07/M08 A3033 RMK AO2 SLP290 70002 T10721083 11039 21072 58001
  • 241054Z 29005KT 10SM CLR M07/M08 A3033 RMK AO2 SLP290 T10671083

TAF KRST
Valid from the 24 at 12:00 until the 25 at 12:00 UTC


241131Z 2412/2512 31006KT P6SM BKN200
FM242000 01006KT P6SM OVC090
FM250500 02005KT P6SM -SN OVC040
FM250900 03007KT 5SM -SN OVC015
KZMP FIR / North America



MET'MAP, your aeronautical weather chart ! - Copyright ORBIFLY December 2007 - Disclaimer

ORBIFLY MET'MAP TEAM :

Programming & Development : Alexandra Zaïnal
Concept & original design : Baudouin d'Aumeries
Assistance for programming : Marc-Olivier Méhu
Technical & hardware support : Manuel Goepfert

Contact : metmap@orbifly.com




SOURCES & CREDITS :

   NOAA       Earth
Advisory